TimeCST,TemperatureF,Dew PointF,Humidity,Sea Level PressureIn,VisibilityMPH,Wind Direction,Wind SpeedMPH,Gust SpeedMPH,PrecipitationIn,Events,Conditions,WindDirDegrees,DateUTC
12:53 AM,48.9,46.0,90,30.02,5.0,NNW,12.7,-,N/A,,Overcast,330,2013-01-15 06:53:00
2:53 AM,48.0,46.9,96,30.00,2.5,NW,15.0,-,0.00,,Overcast,310,2013-01-15 08:53:00
3:09 AM,48.2,46.4,93,30.01,3.0,NW,18.4,-,N/A,,Overcast,320,2013-01-15 09:09:00
3:53 AM,46.9,46.0,97,30.00,5.0,NNW,16.1,-,0.00,Rain,Light Rain,330,2013-01-15 09:53:00
4:21 AM,46.4,44.6,93,30.00,6.0,NNW,17.3,-,0.00,Rain,Light Rain,340,2013-01-15 10:21:00
4:53 AM,46.9,46.0,97,30.00,5.0,NNW,12.7,-,0.01,Rain,Light Rain,340,2013-01-15 10:53:00
5:53 AM,48.0,45.0,89,30.00,8.0,NNW,16.1,21.9,0.00,Rain,Light Rain,340,2013-01-15 11:53:00
6:53 AM,48.0,46.0,93,30.03,8.0,NNW,13.8,-,0.00,,Overcast,340,2013-01-15 12:53:00
7:53 AM,48.0,46.0,93,30.06,7.0,NNW,12.7,-,0.00,,Overcast,330,2013-01-15 13:53:00
8:53 AM,48.9,46.9,93,30.06,7.0,North,12.7,18.4,0.00,,Overcast,360,2013-01-15 14:53:00
9:53 AM,50.0,48.0,93,30.06,8.0,NNW,13.8,-,N/A,,Overcast,340,2013-01-15 15:53:00
10:53 AM,51.1,48.0,89,30.08,4.0,NNW,12.7,-,0.00,Rain,Light Rain,340,2013-01-15 16:53:00
11:53 AM,50.0,48.0,93,30.06,3.0,NNW,13.8,-,0.00,Rain,Light Rain,340,2013-01-15 17:53:00
12:53 PM,48.9,46.9,93,30.04,5.0,North,18.4,-,0.00,,Overcast,350,2013-01-15 18:53:00
1:53 PM,48.9,46.0,90,30.03,8.0,NNW,15.0,-,N/A,,Overcast,340,2013-01-15 19:53:00
2:26 PM,48.2,44.6,87,30.04,8.0,NNW,16.1,-,N/A,,Overcast,340,2013-01-15 20:26:00
2:53 PM,48.9,44.1,83,30.03,9.0,North,13.8,-,N/A,,Overcast,350,2013-01-15 20:53:00
3:53 PM,48.9,44.1,83,30.05,9.0,NNW,12.7,-,N/A,,Overcast,340,2013-01-15 21:53:00
4:17 PM,48.2,42.8,82,30.06,9.0,North,13.8,-,N/A,,Overcast,350,2013-01-15 22:17:00
4:28 PM,48.2,42.8,82,30.08,9.0,NNW,16.1,-,N/A,,Overcast,340,2013-01-15 22:28:00
4:53 PM,48.0,43.0,83,30.07,8.0,NNW,16.1,-,N/A,,Overcast,340,2013-01-15 22:53:00
5:17 PM,48.2,42.8,82,30.09,9.0,NNW,16.1,-,N/A,,Overcast,340,2013-01-15 23:17:00
5:53 PM,46.9,42.1,83,30.10,9.0,NNW,17.3,-,N/A,,Overcast,340,2013-01-15 23:53:00
6:53 PM,46.0,39.9,79,30.12,10.0,NNW,16.1,-,N/A,,Overcast,340,2013-01-16 00:53:00
7:38 PM,46.4,39.2,76,30.14,10.0,NNW,17.3,-,N/A,,Overcast,340,2013-01-16 01:38:00
7:53 PM,46.0,39.0,76,30.15,10.0,NNW,16.1,-,N/A,,Overcast,340,2013-01-16 01:53:00
8:53 PM,46.0,39.9,79,30.16,9.0,NNW,11.5,-,N/A,,Overcast,340,2013-01-16 02:53:00
9:53 PM,46.0,37.9,73,30.17,9.0,North,17.3,24.2,N/A,,Overcast,350,2013-01-16 03:53:00
10:53 PM,45.0,37.0,74,30.19,9.0,NNW,17.3,27.6,N/A,,Overcast,340,2013-01-16 04:53:00